Washington, VA

2:07 PM EDT on April 26, 2017 (GMT -0400)
Ronald Reagan Washington National

Weather History for KDCA - October, 2012

Change the Weather History Date:

Friday, October 26, 2012

  Actual Average Record
Temperature  
Mean Temperature 66 °F 56 °F  
Max Temperature 71 °F 65 °F 82 °F (1978)
Min Temperature 61 °F 47 °F 28 °F (1879)
Degree Days  
Heating Degree Days 0 9  
Month to date heating degree days 105 155  
Since 1 July heating degree days 110 179  
Cooling Degree Days 1 0  
Month to date cooling degree days 45 33  
Year to date cooling degree days 1975 1546  
Growing Degree Days 17 (Base 50)    
Moisture  
Dew Point 59 °F    
Average Humidity 76    
Maximum Humidity 90    
Minimum Humidity 61    
Precipitation  
Precipitation 0.00 in 0.10 in 2.65 in (2007)
Month to date precipitation 0.98 2.83  
Year to date precipitation 23.98 32.95  
Snow  
Snow 0.00 in 0.00 in - ()
Month to date snowfall 0.0 0.0  
Since 1 July snowfall 0.0 0.0  
Snow Depth 0.00 in    
Sea Level Pressure  
Sea Level Pressure 30.14 in    
Wind  
Wind Speed 6 mph (NE)    
Max Wind Speed 10 mph    
Max Gust Speed 13 mph    
Visibility 8 miles    
Events      
T = Trace of Precipitation, MM = Missing Value Source: NWS Daily Summary

Daily Weather History Graph

Daily Weather History Graph

Search for Another Location

Airport or City:

Trip Planner

Search our weather history database for the weather conditions in past years. The results will help you decide how hot, cold, wet, or windy it might be!

Date:

Astronomy

Oct. 26, 2012 Rise Set
Actual Time 7:29 AM EDT 6:14 PM EDT
Civil Twilight 7:01 AM EDT 6:41 PM EDT
Nautical Twilight 6:30 AM EDT 7:12 PM EDT
Astronomical Twilight 5:59 AM EDT 7:43 PM EDT
Moon 4:27 PM EDT 4:24 AM EDT
Length of Visible Light 11h 39m
Length of Day
10h 44m
Waxing Gibbous, 91% of the Moon is Illuminated
Oct 26
Waxing Gibbous
Oct 29
Full
Nov 6
Last Quarter
Nov 13
New
Nov 20
First Quarter

Hourly Weather History & Observations

Time (EDT) Temp. Dew Point Humidity Pressure Visibility Wind Dir Wind Speed Gust Speed Precip Events Conditions
12:52 AM 64.0 °F 57.9 °F 80% 30.18 in 9.0 mi East 3.5 mph - N/A   Overcast
1:14 AM 64.4 °F 57.2 °F 77% 30.18 in 9.0 mi Calm Calm - N/A   Overcast
2:05 AM 62.6 °F 59.0 °F 88% 30.18 in 7.0 mi ENE 3.5 mph - N/A   Overcast
2:52 AM 63.0 °F 59.0 °F 87% 30.17 in 7.0 mi NE 4.6 mph - N/A   Overcast
3:52 AM 63.0 °F 57.9 °F 84% 30.17 in 7.0 mi ENE 8.1 mph - N/A   Overcast
4:01 AM 62.6 °F 59.0 °F 88% 30.17 in 6.0 mi ENE 6.9 mph - N/A   Overcast
4:16 AM 62.6 °F 59.0 °F 88% 30.17 in 6.0 mi ENE 6.9 mph - N/A   Overcast
4:52 AM 63.0 °F 59.0 °F 87% 30.17 in 6.0 mi ENE 6.9 mph - N/A   Overcast
5:08 AM 62.6 °F 59.0 °F 88% 30.17 in 6.0 mi NE 3.5 mph - N/A   Overcast
5:52 AM 63.0 °F 59.0 °F 87% 30.18 in 6.0 mi NNE 4.6 mph - N/A   Overcast
6:52 AM 63.0 °F 59.0 °F 87% 30.18 in 7.0 mi NNE 3.5 mph - N/A   Overcast
7:01 AM 62.6 °F 59.0 °F 88% 30.18 in 7.0 mi NNE 4.6 mph - N/A   Overcast
7:52 AM 63.0 °F 59.0 °F 87% 30.19 in 6.0 mi NNE 4.6 mph - N/A   Overcast
8:52 AM 64.0 °F 60.1 °F 87% 30.19 in 5.0 mi NE 5.8 mph - N/A   Overcast
9:52 AM 64.0 °F 60.1 °F 87% 30.20 in 8.0 mi ENE 5.8 mph - N/A   Overcast
10:52 AM 64.9 °F 60.1 °F 84% 30.20 in 8.0 mi NE 4.6 mph - N/A   Overcast
10:59 AM 64.4 °F 60.8 °F 88% 30.20 in 10.0 mi NE 6.9 mph - N/A   Overcast
11:52 AM 66.9 °F 59.0 °F 76% 30.18 in 10.0 mi East 6.9 mph - N/A   Overcast
12:09 PM 66.2 °F 59.0 °F 78% 30.17 in 10.0 mi ENE 6.9 mph - N/A   Overcast
12:52 PM 68.0 °F 59.0 °F 73% 30.15 in 10.0 mi NE 8.1 mph - N/A   Overcast
1:52 PM 68.0 °F 57.9 °F 70% 30.13 in 10.0 mi East 5.8 mph - N/A   Overcast
2:52 PM 69.1 °F 57.9 °F 68% 30.11 in 10.0 mi East 5.8 mph - N/A   Overcast
3:52 PM 71.1 °F 57.0 °F 61% 30.10 in 10.0 mi NNE 4.6 mph - N/A   Overcast
4:52 PM 68.0 °F 59.0 °F 73% 30.08 in 10.0 mi NE 6.9 mph - N/A   Overcast
5:52 PM 66.9 °F 59.0 °F 76% 30.08 in 10.0 mi NE 8.1 mph - N/A   Overcast
6:20 PM 66.2 °F 59.0 °F 78% 30.08 in 10.0 mi ENE 8.1 mph - N/A   Overcast
6:52 PM 66.0 °F 59.0 °F 78% 30.08 in 10.0 mi ENE 5.8 mph - N/A   Overcast
7:52 PM 64.9 °F 59.0 °F 81% 30.09 in 10.0 mi NE 6.9 mph - N/A   Overcast
8:52 PM 64.9 °F 59.0 °F 81% 30.09 in 10.0 mi NE 6.9 mph - N/A   Overcast
9:52 PM 64.0 °F 57.9 °F 80% 30.09 in 10.0 mi NE 5.8 mph - N/A   Overcast
10:52 PM 63.0 °F 57.9 °F 84% 30.07 in 10.0 mi NE 5.8 mph - N/A   Overcast
11:52 PM 62.1 °F 57.9 °F 86% 30.06 in 10.0 mi NE 6.9 mph - N/A   Mostly Cloudy